^^
Datos históricos de la estación: Murcia-Puente Tocinos
 
Diario Informe para Mayo 28, 2017 Unidades:  Métrico    Inglés   Ambas
« Anterior Día
Siguiente Día »
Diario Semanal Mensual Anual Configurable
  Actual: Máximo: Mínimo: Media:
Temperatura: 21.9 °C 27.6 °C 19.6 °C 23.6 °C
Punto de rocio: 12.7 °C 13.1 °C 9.1 °C 11.1 °C
Humedad: 56% 58% 32% 46%
Velocidad viento: 10.3km/h 24.5km/h 0.0km/h 11.3km/h
Racha viento: 14.8km/h 42.6km/h - -
VientoNNE - - ESE
Presión: 1015.5 hPa 1016.5 hPa 1013.8 hPa -
Precipitación: 0.0 mm      
Historical Graphs
 
 
Tabla de datos para Mayo 28, 2017
Hora Temperatura Punto de rocio Presión Viento Velocidad viento Racha viento Humedad Intensidad lluvia(por hora) Nubes
00:02 22.8 °C 11.2 °C 1016.1 hPa NNE 4.7 km/h 7.4 km/h 48% 0.0 mm CLR
00:07 22.8 °C 11.2 °C 1016.1 hPa North 3.9 km/h 7.4 km/h 48% 0.0 mm CLR
00:12 22.7 °C 11.1 °C 1016.1 hPa North 3.9 km/h 7.4 km/h 48% 0.0 mm CLR
00:17 22.6 °C 11.3 °C 1016.1 hPa NNE 3.9 km/h 4.7 km/h 49% 0.0 mm CLR
00:22 22.6 °C 11.1 °C 1016.5 hPa NNE 3.9 km/h 3.9 km/h 48% 0.0 mm CLR
00:27 22.5 °C 10.9 °C 1016.5 hPa NNW 2.9 km/h 4.7 km/h 48% 0.0 mm CLR
00:32 22.4 °C 11.2 °C 1016.5 hPa NNW 2.9 km/h 3.7 km/h 49% 0.0 mm CLR
00:37 22.4 °C 11.2 °C 1016.5 hPa NNW 2.3 km/h 2.3 km/h 49% 0.0 mm CLR
00:42 22.4 °C 11.2 °C 1016.5 hPa NNW 2.3 km/h 3.9 km/h 49% 0.0 mm CLR
00:47 22.4 °C 11.2 °C 1016.5 hPa Calm   3.7 km/h 49% 0.0 mm CLR
00:52 22.4 °C 10.8 °C 1016.5 hPa Calm   3.7 km/h 48% 0.0 mm CLR
01:02 22.4 °C 11.4 °C 1016.5 hPa NE 2.3 km/h 5.6 km/h 50% 0.0 mm CLR
01:07 22.4 °C 11.4 °C 1016.5 hPa NNE 2.9 km/h 3.7 km/h 50% 0.0 mm CLR
01:12 22.4 °C 11.2 °C 1016.5 hPa NNE 2.9 km/h 3.7 km/h 49% 0.0 mm CLR
01:17 22.4 °C 11.2 °C 1016.5 hPa North 2.3 km/h 3.9 km/h 49% 0.0 mm CLR
01:22 22.4 °C 11.4 °C 1016.5 hPa WNW 2.3 km/h 5.6 km/h 50% 0.0 mm CLR
01:27 22.4 °C 11.4 °C 1016.5 hPa WNW 2.9 km/h 3.7 km/h 50% 0.0 mm CLR
01:32 22.3 °C 11.4 °C 1016.5 hPa WNW 2.9 km/h 3.7 km/h 50% 0.0 mm CLR
01:37 22.3 °C 11.4 °C 1016.1 hPa WNW 2.3 km/h 3.7 km/h 50% 0.0 mm CLR
01:42 22.2 °C 11.6 °C 1016.1 hPa WNW 2.3 km/h 3.7 km/h 51% 0.0 mm CLR
01:47 22.2 °C 11.6 °C 1016.1 hPa NNW 2.9 km/h 3.7 km/h 51% 0.0 mm CLR
01:52 22.1 °C 11.8 °C 1016.1 hPa NNW 2.9 km/h 5.6 km/h 52% 0.0 mm CLR
01:57 21.9 °C 11.9 °C 1016.1 hPa NNE 3.9 km/h 7.4 km/h 53% 0.0 mm CLR
02:02 21.9 °C 12.2 °C 1016.1 hPa NE 3.9 km/h 11.1 km/h 54% 0.0 mm CLR
02:07 21.9 °C 12.4 °C 1016.1 hPa NNE 5.8 km/h 7.4 km/h 55% 0.0 mm CLR
02:12 21.9 °C 12.4 °C 1016.1 hPa North 5.8 km/h 7.4 km/h 55% 0.0 mm CLR
02:17 21.9 °C 12.7 °C 1016.1 hPa North 5.8 km/h 7.6 km/h 56% 0.0 mm CLR
02:22 21.9 °C 12.7 °C 1015.8 hPa NNE 5.8 km/h 9.3 km/h 56% 0.0 mm CLR
02:27 21.9 °C 12.7 °C 1015.8 hPa NNE 5.0 km/h 5.6 km/h 56% 0.0 mm CLR
02:32 21.8 °C 12.9 °C 1015.8 hPa NNE 5.0 km/h 5.6 km/h 57% 0.0 mm CLR
02:37 21.7 °C 12.8 °C 1015.8 hPa NNE 3.2 km/h 3.7 km/h 57% 0.0 mm CLR
02:42 21.7 °C 12.8 °C 1015.8 hPa NNE 3.2 km/h 3.7 km/h 57% 0.0 mm CLR
02:47 21.6 °C 12.7 °C 1015.8 hPa WNW 2.3 km/h 5.6 km/h 57% 0.0 mm CLR
02:52 21.6 °C 12.7 °C 1015.8 hPa WNW 2.3 km/h 3.7 km/h 57% 0.0 mm CLR
02:57 21.4 °C 12.5 °C 1015.8 hPa WNW 3.2 km/h 7.4 km/h 57% 0.0 mm CLR
03:02 21.3 °C 12.4 °C 1015.8 hPa WNW 3.2 km/h 7.4 km/h 57% 0.0 mm CLR
03:07 21.2 °C 12.3 °C 1015.8 hPa West 4.7 km/h 9.3 km/h 57% 0.0 mm CLR
03:12 21.2 °C 12.3 °C 1015.8 hPa West 4.7 km/h 7.4 km/h 57% 0.0 mm CLR
03:17 21.1 °C 12.5 °C 1015.8 hPa West 4.7 km/h 5.6 km/h 58% 0.0 mm CLR
03:22 21.2 °C 12.3 °C 1015.8 hPa West 4.7 km/h 7.4 km/h 57% 0.0 mm CLR
03:23 21.2 °C 12.3 °C 1015.8 hPa West 4.7 km/h 7.4 km/h 57% 0.0 mm CLR
03:28 21.2 °C 12.3 °C 1015.8 hPa West 3.9 km/h 5.6 km/h 57% 0.0 mm CLR
03:33 21.1 °C 12.2 °C 1015.8 hPa West 3.9 km/h 5.6 km/h 57% 0.0 mm CLR
03:38 21.2 °C 12.6 °C 1015.5 hPa West 3.9 km/h 5.6 km/h 58% 0.0 mm CLR
03:43 21.3 °C 12.4 °C 1015.5 hPa West 3.9 km/h 7.4 km/h 57% 0.0 mm CLR
03:48 21.3 °C 12.4 °C 1015.5 hPa West 3.9 km/h 7.4 km/h 57% 0.0 mm CLR
03:53 21.3 °C 12.4 °C 1015.5 hPa WSW 3.9 km/h 7.4 km/h 57% 0.0 mm CLR
03:58 21.2 °C 12.3 °C 1015.5 hPa SW 5.0 km/h 7.4 km/h 57% 0.0 mm CLR
04:03 21.2 °C 12.1 °C 1015.5 hPa WSW 5.0 km/h 7.4 km/h 56% 0.0 mm CLR
04:08 21.2 °C 11.8 °C 1015.5 hPa SSW 4.7 km/h 7.4 km/h 55% 0.0 mm CLR
04:13 21.1 °C 11.4 °C 1015.5 hPa South 4.7 km/h 7.4 km/h 54% 0.0 mm CLR
04:19 21.1 °C 11.4 °C 1015.5 hPa South 4.7 km/h 4.7 km/h 54% 0.0 mm CLR
04:24 21.1 °C 11.4 °C 1015.5 hPa South 4.7 km/h 5.6 km/h 54% 0.0 mm CLR
04:29 21.1 °C 11.4 °C 1015.5 hPa South 2.3 km/h 5.6 km/h 54% 0.0 mm CLR
04:33 21.0 °C 11.3 °C 1015.5 hPa South 2.3 km/h 5.8 km/h 54% 0.0 mm CLR
04:38 20.9 °C 11.2 °C 1015.5 hPa SSW 4.7 km/h 11.1 km/h 54% 0.0 mm CLR
04:43 20.7 °C 11.1 °C 1015.5 hPa SSW 4.7 km/h 9.3 km/h 54% 0.0 mm CLR
04:48 20.5 °C 10.9 °C 1015.5 hPa SSW 6.9 km/h 7.4 km/h 54% 0.0 mm CLR
04:53 20.4 °C 10.8 °C 1015.1 hPa South 6.9 km/h 11.1 km/h 54% 0.0 mm CLR
05:03 20.2 °C 10.6 °C 1015.1 hPa South 7.6 km/h 9.3 km/h 54% 0.0 mm CLR
05:04 20.2 °C 10.6 °C 1015.1 hPa South 7.6 km/h 9.3 km/h 54% 0.0 mm CLR
05:09 20.1 °C 10.8 °C 1015.1 hPa SSE 6.9 km/h 9.3 km/h 55% 0.0 mm CLR
05:14 20.1 °C 10.8 °C 1015.1 hPa SSE 6.9 km/h 11.1 km/h 55% 0.0 mm CLR
05:19 20.1 °C 11.1 °C 1015.1 hPa SSW 7.6 km/h 11.1 km/h 56% 0.0 mm CLR
05:24 20.1 °C 11.1 °C 1015.1 hPa SSW 7.6 km/h 8.7 km/h 56% 0.0 mm CLR
05:29 20.1 °C 11.1 °C 1015.1 hPa SSW 7.6 km/h 13.0 km/h 56% 0.0 mm CLR
05:34 20.2 °C 11.1 °C 1015.1 hPa SW 7.6 km/h 14.8 km/h 56% 0.0 mm CLR
05:39 20.2 °C 11.1 °C 1015.1 hPa SSW 8.7 km/h 13.0 km/h 56% 0.0 mm CLR
05:44 20.3 °C 11.2 °C 1015.1 hPa SSW 8.7 km/h 11.1 km/h 56% 0.0 mm CLR
05:49 20.3 °C 10.9 °C 1015.1 hPa SSW 8.7 km/h 11.1 km/h 55% 0.0 mm CLR
05:54 20.3 °C 10.9 °C 1015.1 hPa SSW 8.7 km/h 13.0 km/h 55% 0.0 mm CLR
06:04 20.2 °C 10.6 °C 1015.1 hPa South 6.9 km/h 11.1 km/h 54% 0.0 mm CLR
06:09 20.2 °C 10.6 °C 1015.1 hPa SW 6.4 km/h 9.3 km/h 54% 0.0 mm CLR
06:14 20.1 °C 10.5 °C 1015.1 hPa South 6.4 km/h 11.1 km/h 54% 0.0 mm CLR
06:19 20.1 °C 10.5 °C 1015.1 hPa SSW 6.4 km/h 7.4 km/h 54% 0.0 mm CLR
06:24 20.1 °C 10.2 °C 1015.1 hPa SSW 6.4 km/h 14.0 km/h 53% 0.0 mm CLR
06:29 20.1 °C 10.2 °C 1015.1 hPa SSW 8.4 km/h 11.1 km/h 53% 0.0 mm CLR
06:34 20.1 °C 10.5 °C 1015.1 hPa SSW 8.4 km/h 11.9 km/h 54% 0.0 mm CLR
06:39 20.1 °C 10.5 °C 1015.5 hPa SSW 6.4 km/h 11.1 km/h 54% 0.0 mm CLR
06:44 20.0 °C 10.4 °C 1015.5 hPa SSW 6.4 km/h 7.4 km/h 54% 0.0 mm CLR
06:49 20.0 °C 10.1 °C 1015.5 hPa SW 6.4 km/h 13.0 km/h 53% 0.0 mm CLR
06:51 20.0 °C 10.4 °C 1015.5 hPa SW 6.4 km/h 11.1 km/h 54% 0.0 mm CLR
06:56 19.9 °C 10.3 °C 1015.5 hPa SSW 6.4 km/h 9.3 km/h 54% 0.0 mm CLR
07:01 19.9 °C 10.3 °C 1015.5 hPa SSW 6.9 km/h 9.3 km/h 54% 0.0 mm CLR
07:06 19.7 °C 10.4 °C 1015.8 hPa South 6.9 km/h 11.1 km/h 55% 0.0 mm CLR
07:11 19.6 °C 10.1 °C 1015.8 hPa SSE 7.6 km/h 11.1 km/h 54% 0.0 mm CLR
07:16 19.6 °C 10.1 °C 1015.8 hPa SSW 7.6 km/h 11.1 km/h 54% 0.0 mm CLR
07:21 19.6 °C 10.1 °C 1015.8 hPa SSE 8.4 km/h 9.3 km/h 54% 0.0 mm CLR
07:26 19.7 °C 10.4 °C 1015.8 hPa South 8.4 km/h 9.3 km/h 55% 0.0 mm CLR
07:31 19.8 °C 10.5 °C 1015.8 hPa South 5.8 km/h 9.3 km/h 55% 0.0 mm CLR
07:36 19.8 °C 10.5 °C 1015.8 hPa SSE 5.8 km/h 9.3 km/h 55% 0.0 mm CLR
07:41 19.8 °C 10.8 °C 1015.8 hPa SSE 6.9 km/h 9.5 km/h 56% 0.0 mm CLR
07:46 19.8 °C 11.1 °C 1015.8 hPa South 6.9 km/h 9.3 km/h 57% 0.0 mm CLR
07:51 19.8 °C 10.8 °C 1015.8 hPa South 6.4 km/h 9.3 km/h 56% 0.0 mm CLR
07:56 19.9 °C 10.8 °C 1015.8 hPa SSE 6.4 km/h 11.1 km/h 56% 0.0 mm CLR
08:01 20.1 °C 11.1 °C 1015.8 hPa SSE 6.4 km/h 7.6 km/h 56% 0.0 mm CLR
08:06 20.2 °C 10.9 °C 1015.8 hPa South 6.4 km/h 9.3 km/h 55% 0.0 mm CLR
08:11 20.4 °C 11.1 °C 1015.8 hPa SSW 6.4 km/h 11.1 km/h 55% 0.0 mm CLR
08:16 20.6 °C 11.2 °C 1015.8 hPa SSE 6.4 km/h 7.4 km/h 55% 0.0 mm CLR
08:21 20.8 °C 11.2 °C 1015.8 hPa SSE 5.8 km/h 11.1 km/h 54% 0.0 mm CLR
08:26 20.9 °C 10.7 °C 1015.8 hPa SSE 5.8 km/h 11.1 km/h 52% 0.0 mm CLR
08:31 21.0 °C 10.8 °C 1015.8 hPa South 6.9 km/h 13.0 km/h 52% 0.0 mm CLR
08:36 21.2 °C 10.3 °C 1015.8 hPa SW 6.9 km/h 8.4 km/h 50% 0.0 mm CLR
08:41 21.3 °C 10.4 °C 1015.8 hPa SSW 7.6 km/h 9.3 km/h 50% 0.0 mm CLR
08:46 21.5 °C 10.6 °C 1015.8 hPa SSW 7.6 km/h 7.6 km/h 50% 0.0 mm CLR
08:51 21.6 °C 10.7 °C 1015.8 hPa SW 5.8 km/h 7.4 km/h 50% 0.0 mm CLR
08:56 21.8 °C 10.6 °C 1015.8 hPa South 5.8 km/h 8.4 km/h 49% 0.0 mm CLR
08:57 21.8 °C 10.6 °C 1015.8 hPa SSW 5.0 km/h 9.3 km/h 49% 0.0 mm CLR
09:02 21.8 °C 10.6 °C 1015.8 hPa WSW 5.0 km/h 8.7 km/h 49% 0.0 mm CLR
09:07 22.1 °C 10.9 °C 1015.8 hPa SW 5.0 km/h 6.4 km/h 49% 0.0 mm CLR
09:12 22.1 °C 10.6 °C 1015.8 hPa SW 5.0 km/h 11.1 km/h 48% 0.0 mm CLR
09:17 22.2 °C 10.7 °C 1015.8 hPa SSW 6.4 km/h 8.7 km/h 48% 0.0 mm CLR
09:22 22.4 °C 10.8 °C 1016.1 hPa NW 6.4 km/h 7.4 km/h 48% 0.0 mm CLR
09:27 22.6 °C 10.7 °C 1016.1 hPa WSW 5.8 km/h 9.3 km/h 47% 0.0 mm CLR
09:32 22.7 °C 10.8 °C 1016.1 hPa WSW 5.8 km/h 9.3 km/h 47% 0.0 mm CLR
09:37 22.8 °C 10.9 °C 1016.1 hPa WNW 6.4 km/h 7.4 km/h 47% 0.0 mm CLR
09:42 23.0 °C 11.1 °C 1016.1 hPa WNW 6.4 km/h 9.3 km/h 47% 0.0 mm CLR
09:47 23.2 °C 10.9 °C 1016.1 hPa WSW 5.0 km/h 7.4 km/h 46% 0.0 mm CLR
09:52 23.4 °C 10.8 °C 1016.1 hPa WNW 5.0 km/h 7.4 km/h 45% 0.0 mm CLR
09:57 23.7 °C 11.1 °C 1016.1 hPa WSW 4.7 km/h 4.7 km/h 45% 0.0 mm CLR
10:02 23.9 °C 10.9 °C 1016.1 hPa NW 4.7 km/h 7.4 km/h 44% 0.0 mm CLR
10:07 24.1 °C 10.7 °C 1016.5 hPa WNW 4.7 km/h 4.7 km/h 43% 0.0 mm CLR
10:12 24.4 °C 10.7 °C 1016.5 hPa WNW 4.7 km/h 6.4 km/h 42% 0.0 mm CLR
10:17 24.7 °C 10.9 °C 1016.5 hPa NW 3.9 km/h 7.4 km/h 42% 0.0 mm CLR
10:22 24.8 °C 10.7 °C 1016.5 hPa NE 3.9 km/h 7.4 km/h 41% 0.0 mm CLR
10:27 24.8 °C 10.7 °C 1016.5 hPa ENE 7.6 km/h 11.1 km/h 41% 0.0 mm CLR
10:32 24.7 °C 10.6 °C 1016.5 hPa North 7.6 km/h 16.7 km/h 41% 0.0 mm CLR
10:37 24.6 °C 10.4 °C 1016.5 hPa NE 10.0 km/h 13.0 km/h 41% 0.0 mm CLR
10:42 24.8 °C 10.7 °C 1016.5 hPa NW 10.0 km/h 13.0 km/h 41% 0.0 mm CLR
10:43 24.9 °C 10.7 °C 1016.5 hPa ENE 10.0 km/h 14.0 km/h 41% 0.0 mm CLR
10:48 25.1 °C 10.6 °C 1016.5 hPa NE 6.9 km/h 18.5 km/h 40% 0.0 mm CLR
10:53 25.1 °C 10.6 °C 1016.1 hPa NNW 6.9 km/h 16.7 km/h 40% 0.0 mm CLR
10:58 25.2 °C 10.6 °C 1016.1 hPa NE 10.0 km/h 14.8 km/h 40% 0.0 mm CLR
11:03 25.2 °C 10.6 °C 1016.1 hPa NE 10.0 km/h 14.8 km/h 40% 0.0 mm CLR
11:08 25.4 °C 10.8 °C 1016.1 hPa NNE 13.0 km/h 20.4 km/h 40% 0.0 mm CLR
11:13 25.6 °C 10.2 °C 1016.1 hPa NE 13.0 km/h 27.4 km/h 38% 0.0 mm CLR
11:18 25.7 °C 10.3 °C 1016.1 hPa ENE 16.1 km/h 25.9 km/h 38% 0.0 mm CLR
11:19 25.6 °C 10.2 °C 1016.1 hPa NE 16.1 km/h 25.9 km/h 38% 0.0 mm CLR
11:24 25.9 °C 10.5 °C 1016.1 hPa ENE 16.1 km/h 16.1 km/h 38% 0.0 mm CLR
11:29 26.1 °C 10.7 °C 1016.1 hPa NNE 13.7 km/h 18.5 km/h 38% 0.0 mm CLR
11:34 26.0 °C 10.6 °C 1016.1 hPa NNE 13.7 km/h 24.1 km/h 38% 0.0 mm CLR
11:39 26.2 °C 9.5 °C 1016.1 hPa NNE 15.6 km/h 24.1 km/h 35% 0.0 mm CLR
11:44 26.4 °C 9.7 °C 1016.1 hPa NNE 15.6 km/h 27.8 km/h 35% 0.0 mm CLR
11:49 26.3 °C 9.6 °C 1016.1 hPa ENE 16.4 km/h 22.2 km/h 35% 0.0 mm CLR
11:54 26.3 °C 9.6 °C 1016.1 hPa NNE 16.4 km/h 24.1 km/h 35% 0.0 mm CLR
11:59 26.2 °C 9.5 °C 1016.1 hPa East 18.0 km/h 25.1 km/h 35% 0.0 mm CLR
12:04 26.3 °C 10.1 °C 1016.1 hPa ENE 18.0 km/h 20.4 km/h 36% 0.0 mm CLR
12:09 26.4 °C 9.7 °C 1016.1 hPa North 16.4 km/h 24.1 km/h 35% 0.0 mm CLR
12:14 26.3 °C 9.6 °C 1016.1 hPa North 16.4 km/h 29.6 km/h 35% 0.0 mm CLR
12:19 26.5 °C 9.8 °C 1016.1 hPa NNE 16.4 km/h 20.4 km/h 35% 0.0 mm CLR
12:24 26.7 °C 9.6 °C 1015.8 hPa NNE 16.4 km/h 26.2 km/h 34% 0.0 mm CLR
12:29 26.6 °C 9.4 °C 1015.8 hPa North 16.1 km/h 27.8 km/h 34% 0.0 mm CLR
12:34 26.4 °C 9.7 °C 1015.8 hPa NE 16.1 km/h 19.0 km/h 35% 0.0 mm CLR
12:39 26.4 °C 9.7 °C 1015.8 hPa ENE 19.8 km/h 31.5 km/h 35% 0.0 mm CLR
12:44 26.5 °C 9.3 °C 1015.8 hPa NNE 19.8 km/h 25.9 km/h 34% 0.0 mm CLR
12:49 26.6 °C 9.9 °C 1015.8 hPa NE 19.0 km/h 24.1 km/h 35% 0.0 mm CLR
12:54 26.7 °C 9.9 °C 1015.8 hPa NE 19.0 km/h 27.8 km/h 35% 0.0 mm CLR
12:59 26.7 °C 9.9 °C 1015.8 hPa ENE 17.2 km/h 33.3 km/h 35% 0.0 mm CLR
13:04 26.8 °C 10.1 °C 1015.8 hPa ENE 17.2 km/h 20.4 km/h 35% 0.0 mm CLR
13:09 26.9 °C 9.7 °C 1015.8 hPa NE 16.4 km/h 22.2 km/h 34% 0.0 mm CLR
13:14 26.9 °C 10.2 °C 1015.8 hPa North 16.4 km/h 20.4 km/h 35% 0.0 mm CLR
13:19 26.9 °C 10.2 °C 1015.8 hPa NE 16.1 km/h 16.7 km/h 35% 0.0 mm CLR
13:24 26.9 °C 10.6 °C 1015.8 hPa NNE 16.1 km/h 29.6 km/h 36% 0.0 mm CLR
13:29 27.2 °C 9.9 °C 1015.8 hPa ENE 14.0 km/h 27.8 km/h 34% 0.0 mm CLR
13:34 27.1 °C 9.9 °C 1015.8 hPa NNE 14.0 km/h 27.8 km/h 34% 0.0 mm CLR
13:39 27.1 °C 10.3 °C 1015.8 hPa NNE 18.3 km/h 20.4 km/h 35% 0.0 mm CLR
13:44 27.1 °C 10.3 °C 1015.8 hPa NNE 18.3 km/h 18.3 km/h 35% 0.0 mm CLR
13:49 27.2 °C 9.9 °C 1015.8 hPa NE 16.1 km/h 29.6 km/h 34% 0.0 mm CLR
13:54 27.1 °C 9.9 °C 1015.5 hPa NE 16.1 km/h 25.6 km/h 34% 0.0 mm CLR
13:59 27.2 °C 9.5 °C 1015.5 hPa NNE 19.8 km/h 40.7 km/h 33% 0.0 mm CLR
14:04 27.2 °C 9.9 °C 1015.5 hPa NE 19.8 km/h 22.2 km/h 34% 0.0 mm CLR
14:09 27.3 °C 9.6 °C 1015.5 hPa North 19.8 km/h 25.9 km/h 33% 0.0 mm CLR
14:14 27.3 °C 9.6 °C 1015.5 hPa NNE 19.8 km/h 29.6 km/h 33% 0.0 mm CLR
14:19 27.2 °C 9.1 °C 1015.5 hPa NE 19.8 km/h 27.8 km/h 32% 0.0 mm CLR
14:24 27.2 °C 9.5 °C 1015.1 hPa ENE 19.8 km/h 27.8 km/h 33% 0.0 mm CLR
14:29 27.2 °C 9.5 °C 1015.1 hPa NE 20.1 km/h 27.8 km/h 33% 0.0 mm CLR
14:34 27.3 °C 9.2 °C 1015.1 hPa NNW 20.1 km/h 33.3 km/h 32% 0.0 mm CLR
14:39 27.2 °C 9.5 °C 1014.8 hPa NNE 19.0 km/h 42.6 km/h 33% 0.0 mm CLR
14:44 27.2 °C 9.5 °C 1014.8 hPa NNE 19.0 km/h 38.9 km/h 33% 0.0 mm CLR
14:49 27.1 °C 9.4 °C 1014.8 hPa NNE 23.7 km/h 33.3 km/h 33% 0.0 mm CLR
14:54 27.1 °C 9.9 °C 1014.4 hPa NNE 23.7 km/h 35.2 km/h 34% 0.0 mm CLR
14:59 27.1 °C 9.9 °C 1014.4 hPa NNE 23.3 km/h 34.3 km/h 34% 0.0 mm CLR
15:04 27.1 °C 9.9 °C 1014.4 hPa NE 23.3 km/h 38.9 km/h 34% 0.0 mm CLR
15:09 27.2 °C 9.5 °C 1014.1 hPa NNE 23.3 km/h 37.0 km/h 33% 0.0 mm CLR
15:14 27.1 °C 9.9 °C 1014.1 hPa NE 23.3 km/h 37.0 km/h 34% 0.0 mm CLR
15:19 27.2 °C 9.5 °C 1014.1 hPa NNE 24.5 km/h 33.3 km/h 33% 0.0 mm CLR
15:24 27.4 °C 9.7 °C 1014.1 hPa North 24.5 km/h 38.9 km/h 33% 0.0 mm CLR
15:29 27.2 °C 9.5 °C 1014.1 hPa ENE 24.5 km/h 33.3 km/h 33% 0.0 mm CLR
15:34 27.2 °C 9.5 °C 1014.1 hPa ENE 24.5 km/h 35.2 km/h 33% 0.0 mm CLR
15:39 27.4 °C 9.7 °C 1014.1 hPa NE 20.9 km/h 32.3 km/h 33% 0.0 mm CLR
15:44 27.3 °C 9.6 °C 1014.1 hPa ENE 20.9 km/h 33.3 km/h 33% 0.0 mm CLR
15:49 27.3 °C 9.6 °C 1014.1 hPa ENE 20.9 km/h 35.2 km/h 33% 0.0 mm CLR
15:54 27.3 °C 9.6 °C 1014.1 hPa NNE 20.9 km/h 33.3 km/h 33% 0.0 mm CLR
15:59 27.6 °C 9.9 °C 1014.1 hPa NE 22.0 km/h 24.1 km/h 33% 0.0 mm CLR
16:04 27.4 °C 9.7 °C 1014.1 hPa NE 22.0 km/h 33.5 km/h 33% 0.0 mm CLR
16:09 27.3 °C 9.2 °C 1013.8 hPa NE 19.8 km/h 38.9 km/h 32% 0.0 mm CLR
16:14 27.3 °C 9.2 °C 1013.8 hPa NE 19.8 km/h 33.3 km/h 32% 0.0 mm CLR
16:19 27.3 °C 9.2 °C 1013.8 hPa NNE 22.5 km/h 32.8 km/h 32% 0.0 mm CLR
16:24 27.0 °C 9.3 °C 1013.8 hPa NE 22.5 km/h 35.2 km/h 33% 0.0 mm CLR
16:29 26.9 °C 9.7 °C 1013.8 hPa ENE 22.5 km/h 37.0 km/h 34% 0.0 mm CLR
16:34 26.9 °C 10.2 °C 1013.8 hPa NE 22.5 km/h 37.0 km/h 35% 0.0 mm CLR
16:39 27.2 °C 9.5 °C 1013.8 hPa NNW 20.9 km/h 29.6 km/h 33% 0.0 mm CLR
16:44 27.2 °C 9.9 °C 1013.8 hPa NE 20.9 km/h 37.0 km/h 34% 0.0 mm CLR
16:49 27.1 °C 10.3 °C 1013.8 hPa NE 20.9 km/h 33.8 km/h 35% 0.0 mm CLR
16:54 27.1 °C 9.9 °C 1013.8 hPa NE 20.9 km/h 38.6 km/h 34% 0.0 mm CLR
16:59 27.1 °C 9.9 °C 1013.8 hPa NE 18.0 km/h 33.3 km/h 34% 0.0 mm CLR
17:04 26.9 °C 9.7 °C 1013.8 hPa North 18.0 km/h 31.5 km/h 34% 0.0 mm CLR
17:09 26.9 °C 10.2 °C 1013.8 hPa East 18.3 km/h 29.6 km/h 35% 0.0 mm CLR
17:14 26.8 °C 10.0 °C 1013.8 hPa NE 19.3 km/h 37.0 km/h 35% 0.0 mm CLR
17:19 26.6 °C 10.3 °C 1013.8 hPa NE 22.5 km/h 35.4 km/h 36% 0.0 mm CLR
17:24 26.7 °C 10.8 °C 1013.8 hPa ENE 21.7 km/h 21.7 km/h 37% 0.0 mm CLR
17:29 26.6 °C 10.7 °C 1013.8 hPa NE 18.3 km/h 27.8 km/h 37% 0.0 mm CLR
17:34 26.6 °C 10.3 °C 1013.8 hPa NE 19.3 km/h 35.4 km/h 36% 0.0 mm CLR
17:39 26.5 °C 10.6 °C 1014.1 hPa North 20.1 km/h 20.1 km/h 37% 0.0 mm CLR
17:44 26.6 °C 10.7 °C 1014.1 hPa East 20.1 km/h 29.6 km/h 37% 0.0 mm CLR
17:49 26.4 °C 10.9 °C 1014.1 hPa NNE 16.1 km/h 33.3 km/h 38% 0.0 mm CLR
17:54 26.3 °C 10.8 °C 1014.1 hPa NNE 16.1 km/h 29.6 km/h 38% 0.0 mm CLR
17:59 26.3 °C 11.3 °C 1014.1 hPa NE 20.9 km/h 25.7 km/h 39% 0.0 mm CLR
18:04 26.3 °C 11.2 °C 1014.1 hPa NNE 19.8 km/h 25.9 km/h 39% 0.0 mm CLR
18:09 26.3 °C 11.2 °C 1014.1 hPa NE 16.1 km/h 30.6 km/h 39% 0.0 mm CLR
18:19 25.9 °C 11.3 °C 1014.1 hPa NE 19.3 km/h 33.8 km/h 40% 0.0 mm CLR
18:24 25.7 °C 11.4 °C 1014.1 hPa NE 18.3 km/h 33.3 km/h 41% 0.0 mm CLR
18:29 25.7 °C 11.8 °C 1014.1 hPa NNE 20.1 km/h 24.1 km/h 42% 0.0 mm CLR
18:34 25.8 °C 11.9 °C 1014.1 hPa NE 20.9 km/h 27.4 km/h 42% 0.0 mm CLR
18:39 25.5 °C 11.7 °C 1014.1 hPa East 16.1 km/h 29.6 km/h 42% 0.0 mm CLR
18:44 25.2 °C 11.8 °C 1014.1 hPa ENE 16.1 km/h 35.4 km/h 43% 0.0 mm CLR
18:49 25.2 °C 11.7 °C 1014.1 hPa ENE 16.1 km/h 25.7 km/h 43% 0.0 mm CLR
18:54 25.2 °C 11.7 °C 1014.1 hPa North 16.4 km/h 22.2 km/h 43% 0.0 mm CLR
18:59 25.0 °C 11.9 °C 1014.1 hPa NNE 15.6 km/h 25.9 km/h 44% 0.0 mm CLR
19:04 24.9 °C 11.8 °C 1014.1 hPa ENE 14.5 km/h 29.0 km/h 44% 0.0 mm CLR
19:05 24.8 °C 12.1 °C 1014.1 hPa NNE 15.6 km/h 27.8 km/h 45% 0.0 mm CLR
19:10 24.7 °C 11.9 °C 1014.1 hPa North 16.4 km/h 18.5 km/h 45% 0.0 mm CLR
19:15 24.7 °C 11.9 °C 1014.1 hPa SE 16.4 km/h 29.6 km/h 45% 0.0 mm CLR
19:20 24.7 °C 11.9 °C 1014.1 hPa NE 14.8 km/h 29.6 km/h 45% 0.0 mm CLR
19:25 24.5 °C 12.1 °C 1014.1 hPa NE 14.8 km/h 29.6 km/h 46% 0.0 mm CLR
19:30 24.5 °C 12.1 °C 1014.1 hPa ENE 16.4 km/h 24.1 km/h 46% 0.0 mm CLR
19:35 24.3 °C 12.3 °C 1014.1 hPa East 16.4 km/h 29.6 km/h 47% 0.0 mm CLR
19:40 24.2 °C 12.5 °C 1014.1 hPa ENE 16.4 km/h 20.4 km/h 48% 0.0 mm CLR
19:45 24.2 °C 12.5 °C 1014.1 hPa ENE 16.4 km/h 29.6 km/h 48% 0.0 mm CLR
19:50 24.1 °C 12.7 °C 1014.1 hPa NE 13.7 km/h 18.0 km/h 49% 0.0 mm CLR
19:55 24.1 °C 12.7 °C 1014.1 hPa NNE 13.7 km/h 25.9 km/h 49% 0.0 mm CLR
20:00 24.0 °C 12.9 °C 1014.1 hPa ENE 13.7 km/h 22.2 km/h 50% 0.0 mm CLR
20:05 23.9 °C 12.8 °C 1014.4 hPa NE 13.7 km/h 25.9 km/h 50% 0.0 mm CLR
20:10 23.7 °C 12.9 °C 1014.4 hPa NE 15.6 km/h 25.9 km/h 51% 0.0 mm CLR
20:15 23.6 °C 12.9 °C 1014.4 hPa NE 15.6 km/h 24.1 km/h 51% 0.0 mm CLR
20:20 23.5 °C 12.8 °C 1014.8 hPa East 15.6 km/h 22.2 km/h 51% 0.0 mm CLR
20:25 23.4 °C 13.0 °C 1014.8 hPa East 15.6 km/h 24.1 km/h 52% 0.0 mm CLR
20:30 23.3 °C 12.9 °C 1014.8 hPa NE 13.0 km/h 24.1 km/h 52% 0.0 mm CLR
20:35 23.2 °C 12.8 °C 1015.1 hPa NE 13.0 km/h 20.1 km/h 52% 0.0 mm CLR
20:40 23.1 °C 12.7 °C 1015.1 hPa NE 14.0 km/h 25.9 km/h 52% 0.0 mm CLR
20:45 23.1 °C 13.0 °C 1015.1 hPa North 14.0 km/h 18.5 km/h 53% 0.0 mm CLR
20:50 23.1 °C 13.0 °C 1015.1 hPa ENE 14.0 km/h 18.5 km/h 53% 0.0 mm CLR
20:55 23.1 °C 13.0 °C 1015.1 hPa NNE 14.0 km/h 18.5 km/h 53% 0.0 mm CLR
21:00 23.0 °C 12.9 °C 1015.1 hPa ENE 11.1 km/h 16.7 km/h 53% 0.0 mm CLR
21:05 22.9 °C 13.1 °C 1015.1 hPa NE 11.1 km/h 14.8 km/h 54% 0.0 mm CLR
21:10 22.9 °C 13.1 °C 1015.1 hPa ESE 10.3 km/h 11.1 km/h 54% 0.0 mm CLR
21:15 22.9 °C 13.1 °C 1015.1 hPa ENE 10.3 km/h 13.0 km/h 54% 0.0 mm CLR
21:20 22.8 °C 13.0 °C 1015.1 hPa ENE 8.7 km/h 13.7 km/h 54% 0.0 mm CLR
21:26 22.7 °C 12.9 °C 1015.1 hPa NNE 8.7 km/h 9.5 km/h 54% 0.0 mm CLR
21:31 22.7 °C 12.9 °C 1015.1 hPa North 9.5 km/h 18.5 km/h 54% 0.0 mm CLR
21:36 22.6 °C 12.8 °C 1015.1 hPa NE 9.5 km/h 16.7 km/h 54% 0.0 mm CLR
21:41 22.4 °C 12.9 °C 1015.1 hPa NNE 10.3 km/h 16.7 km/h 55% 0.0 mm CLR
21:46 22.4 °C 12.9 °C 1015.1 hPa NNE 10.3 km/h 16.7 km/h 55% 0.0 mm CLR
21:51 22.4 °C 12.9 °C 1015.1 hPa North 11.1 km/h 13.0 km/h 55% 0.0 mm CLR
21:56 22.3 °C 12.8 °C 1015.1 hPa NE 11.1 km/h 18.5 km/h 55% 0.0 mm CLR
22:01 22.2 °C 12.7 °C 1015.1 hPa ENE 10.3 km/h 20.4 km/h 55% 0.0 mm CLR
22:06 22.2 °C 13.0 °C 1015.5 hPa NE 10.3 km/h 14.8 km/h 56% 0.0 mm CLR
22:11 22.2 °C 13.0 °C 1015.5 hPa NE 11.9 km/h 22.2 km/h 56% 0.0 mm CLR
22:16 22.2 °C 13.0 °C 1015.5 hPa NE 11.9 km/h 15.6 km/h 56% 0.0 mm CLR
22:21 22.1 °C 12.9 °C 1015.5 hPa NNE 11.9 km/h 18.0 km/h 56% 0.0 mm CLR
22:26 22.1 °C 12.9 °C 1015.5 hPa NE 11.9 km/h 14.8 km/h 56% 0.0 mm CLR
22:31 22.0 °C 12.8 °C 1015.5 hPa North 10.3 km/h 16.7 km/h 56% 0.0 mm CLR
22:36 21.9 °C 12.7 °C 1015.5 hPa NNE 10.3 km/h 14.8 km/h 56% 0.0 mm CLR
Murcia-Puente Tocinos, España
Compliments of Weather Underground - 2.75 mb

La estación de MeteoMurcia.com, publica sus datos en los siguientes proyectos:

Meteoclimatic www.awekas.at

W3Counter
Web Analytics